Temp_Advection
nan nan nan nan nan nan nan nan nan nan nan nan nan nan nan nan nan nan nan nan nan nan nan nan nan nan nan
nan 0 0 -0 -0 -0 -0 -0 -0 -0 -0 -0 -0 -1 1 1 0 -0 -0 -1 -0 -1 -1 -1 -0 -0 nan
nan -0 -0 -0 -0 -1 -1 -0 0 -0 -0 -0 -0 -0 -0 1 1 0 0 -0 -0 -0 -0 -0 -0 -0 nan
nan -0 -0 -0 -0 -1 -2 -1 -0 0 -0 0 0 0 0 0 0 0 0 -0 -0 -0 -0 -0 -0 -0 nan
nan -0 -0 -0 -0 -0 -2 -2 -2 -0 -1 -0 0 0 -0 0 0 1 0 -0 -0 -0 -0 -0 -0 -0 nan
nan -0 0 -0 -1 -0 -0 -1 -2 -1 -1 -1 -0 -0 -0 0 0 1 0 -0 -0 -0 -0 -0 -1 -0 nan
nan -0 -0 0 -0 -1 -0 -0 -0 -0 -0 -2 -1 -1 -0 -0 0 0 -0 -0 -0 -0 -0 -0 -0 -0 nan
nan 0 0 0 -0 -0 0 -0 -1 -0 0 -1 -1 -1 -1 -0 0 0 0 0 0 0 -0 -1 -0 -0 nan
nan 0 0 0 0 -0 -0 -0 -1 -1 -0 -1 -2 -2 -2 -1 0 0 1 0 0 1 1 -0 -0 -0 nan
nan 1 1 1 1 0 0 -0 -0 -1 -0 -0 -1 -1 -2 -2 -1 -1 -0 -0 -0 -0 0 0 0 -0 nan
nan 0 0 1 1 0 0 1 1 -0 -0 0 -1 -0 -0 -2 -2 -1 -1 -1 -0 -0 0 0 0 0 nan
nan -1 -0 -0 0 0 0 0 1 0 -0 0 0 -0 -0 -1 -2 -2 -1 -1 -1 -0 -0 -0 -0 0 nan
nan -1 -1 -1 -1 -1 -0 -0 -0 1 0 0 0 0 0 -0 -1 -0 -1 -2 -0 -0 -1 -1 -0 -0 nan
nan -0 -0 -1 -1 -1 -1 -1 -1 -1 1 0 0 0 -0 -0 -0 -0 1 -0 -1 -0 -0 -1 -1 -0 nan
nan -0 -0 -0 -1 -1 -0 -0 -1 -2 -1 0 0 0 0 -0 -1 -0 0 0 -0 -0 -0 -1 -1 0 nan
nan 0 0 0 0 -0 -0 0 -0 -0 -1 -0 -0 0 -0 -0 -0 -1 -0 -0 -0 -0 -0 -1 -2 -0 nan
nan nan nan nan nan nan nan nan nan nan nan nan nan nan nan nan nan nan nan nan nan nan nan nan nan nan nan
Wind_Speed
11 15 16 16 17 17 19 21 22 24 25 25 26 23 21 20 21 21 22 22 22 23 22 21 22 22 23
13 14 15 17 18 20 21 22 24 24 23 21 20 22 23 22 20 22 21 21 21 21 20 21 22 22 23
14 16 18 19 20 21 23 23 24 24 20 18 23 24 24 23 22 23 21 19 18 21 22 22 22 21 21
15 17 19 20 22 26 27 26 27 26 22 24 24 24 22 21 20 20 20 18 20 16 20 20 20 20 22
16 18 20 22 25 27 28 29 30 26 27 31 28 24 22 21 20 20 19 19 16 19 18 20 20 22 21
18 20 21 23 25 25 26 30 33 27 34 33 27 25 23 22 21 22 18 17 14 20 22 23 19 21 23
18 19 22 22 22 25 27 27 29 31 31 35 26 24 26 23 18 10 9 16 18 21 23 22 20 23 21
16 18 18 18 21 24 26 28 29 27 26 32 25 31 32 22 5 2 13 19 21 19 20 22 22 21 21
17 17 18 21 20 24 25 28 31 30 19 20 31 33 34 22 7 12 28 21 19 21 22 21 19 17 20
18 20 21 19 21 20 23 24 24 26 18 28 29 28 25 19 18 29 27 21 22 20 19 12 16 19 21
22 22 23 21 21 19 19 20 21 21 23 20 26 25 21 31 35 35 30 29 24 18 12 14 21 22 26
24 24 24 23 23 21 19 18 19 22 19 15 21 20 24 32 38 37 35 30 24 17 16 26 24 23 21
24 25 25 26 24 23 21 20 21 18 15 14 17 19 21 29 35 36 32 31 17 21 28 26 26 23 25
25 25 26 26 25 26 26 23 24 22 17 14 15 18 24 25 27 31 25 23 28 24 28 28 24 22 21
22 24 25 23 24 29 24 25 25 26 24 20 15 17 20 22 27 23 25 27 28 30 28 30 27 25 23
20 23 24 21 24 31 27 24 25 25 25 22 20 22 25 28 20 26 28 31 31 28 26 30 32 26 25
21 24 23 21 26 28 24 25 25 25 23 23 23 22 28 33 31 23 32 33 30 28 26 26 31 30 28
Wind_Direction
303 309 313 314 317 320 323 321 318 314 317 318 314 311 316 312 305 307 307 303 304 303 303 301 305 304 304
311 313 317 318 321 320 321 322 321 321 328 323 320 317 314 315 313 311 311 305 304 308 306 301 301 305 306
317 318 318 317 319 322 325 326 326 329 330 325 327 323 317 311 310 309 306 315 316 311 306 302 302 301 305
318 318 319 323 324 326 327 328 328 334 331 325 328 323 323 317 312 305 302 310 311 311 309 312 310 311 305
318 317 319 323 325 325 323 327 328 332 332 324 329 324 325 325 316 308 307 306 309 307 313 307 301 300 302
316 316 319 319 320 322 325 325 328 332 326 321 327 320 321 324 316 304 308 313 308 302 304 308 302 306 300
313 315 317 319 318 320 320 320 320 326 323 317 327 318 325 333 319 316 338 316 290 290 301 308 304 300 302
318 319 319 315 311 314 315 313 313 321 325 314 330 327 330 339 277 308 331 327 317 312 307 306 305 302 301
315 321 317 314 316 314 315 317 319 325 335 325 326 328 329 340 261 287 321 319 316 314 310 307 307 302 290
317 319 320 317 317 312 312 312 319 329 327 323 327 334 328 329 308 317 321 322 322 315 308 300 307 305 299
314 315 317 313 315 309 307 305 310 303 318 318 314 320 313 309 313 319 323 324 321 317 290 286 304 305 301
312 316 317 317 317 316 311 304 301 300 311 308 304 311 311 309 310 317 319 321 324 314 300 306 303 301 296
317 320 317 321 322 320 314 309 303 303 309 305 304 310 312 310 308 311 315 321 324 312 311 308 311 311 307
315 321 324 325 329 331 320 317 316 313 309 311 309 311 311 316 319 316 321 316 322 322 319 317 315 314 313
320 325 327 322 321 329 326 322 315 316 318 316 310 311 312 317 320 322 320 321 325 324 319 316 315 318 318
321 325 324 319 313 323 323 320 319 322 319 321 320 320 321 321 325 328 325 326 325 322 319 315 312 318 318
320 321 319 316 311 316 320 323 321 321 322 328 326 320 316 316 326 326 324 322 320 319 321 316 312 317 319
Height
1520 1517 1515 1513 1511 1508 1505 1502 1499 1494 1491 1488 1484 1479 1475 1473 1470 1467 1464 1462 1458 1456 1453 1450 1447 1444 1442
1517 1515 1511 1509 1506 1504 1502 1499 1494 1489 1486 1482 1478 1474 1470 1466 1463 1459 1456 1453 1451 1449 1447 1444 1441 1439 1436
1512 1511 1509 1505 1502 1500 1497 1494 1489 1485 1481 1478 1474 1469 1465 1460 1457 1453 1450 1447 1446 1443 1442 1439 1436 1434 1431
1510 1508 1505 1502 1498 1494 1491 1488 1483 1480 1477 1472 1469 1464 1459 1455 1452 1448 1445 1443 1441 1439 1436 1433 1431 1429 1427
1505 1504 1500 1497 1494 1491 1486 1481 1477 1473 1469 1465 1462 1458 1454 1450 1446 1442 1439 1438 1436 1435 1432 1430 1427 1425 1422
1502 1499 1497 1494 1491 1486 1482 1477 1470 1470 1464 1458 1456 1452 1448 1445 1440 1435 1433 1433 1432 1430 1427 1424 1422 1420 1417
1499 1496 1493 1491 1487 1482 1478 1474 1470 1466 1460 1451 1451 1447 1443 1439 1433 1431 1431 1430 1427 1424 1422 1419 1417 1414 1411
1495 1494 1491 1488 1484 1478 1474 1469 1467 1463 1458 1447 1446 1440 1436 1434 1430 1429 1428 1426 1423 1419 1417 1414 1410 1408 1405
1493 1490 1487 1484 1479 1474 1470 1465 1459 1456 1453 1448 1442 1435 1432 1430 1428 1427 1425 1421 1418 1414 1410 1407 1405 1403 1399
1490 1487 1483 1479 1476 1471 1466 1461 1457 1450 1449 1445 1440 1437 1428 1424 1425 1423 1419 1416 1412 1409 1405 1402 1400 1397 1393
1486 1482 1478 1475 1471 1467 1463 1458 1454 1451 1448 1444 1437 1435 1433 1424 1416 1415 1412 1409 1406 1403 1400 1398 1395 1392 1386
1481 1477 1472 1469 1466 1461 1458 1454 1451 1447 1444 1441 1435 1433 1428 1422 1414 1409 1406 1402 1400 1397 1395 1391 1388 1385 1381
1475 1471 1467 1463 1459 1455 1452 1449 1445 1442 1440 1437 1433 1429 1425 1419 1411 1405 1400 1396 1394 1392 1388 1384 1380 1376 1372
1470 1465 1461 1457 1454 1451 1446 1442 1439 1436 1434 1432 1428 1425 1419 1415 1409 1401 1398 1394 1389 1386 1381 1376 1373 1371 1368
1465 1460 1456 1453 1450 1447 1441 1437 1434 1429 1426 1424 1422 1419 1415 1410 1403 1399 1393 1389 1385 1380 1375 1369 1367 1365 1361
1460 1456 1452 1448 1445 1441 1437 1433 1429 1425 1421 1418 1414 1410 1406 1403 1401 1394 1389 1384 1379 1375 1371 1364 1358 1358 1354
1455 1451 1448 1444 1440 1436 1432 1428 1424 1420 1417 1413 1409 1406 1400 1394 1392 1391 1385 1379 1373 1369 1366 1360 1353 1349 1346